This is the latest recevied weather packets stored in our database for station/object KC5EZZ-2. If no packets are shown the sender has not sent any weather packets the latest 10 day(s).
| Time | Temp. | Humidity | Pressure | Rain* | Wind** | Luminosity | Snow |
|---|---|---|---|---|---|---|---|
| 1787703372 | 38.89° C | - | - | 0 mm | 3.58 m/s, 118° | - | - |
| 1787703069 | 38.89° C | - | - | 0 mm | 3.13 m/s, 136° | - | - |
| 1787702769 | 38.89° C | - | - | 0 mm | 3.58 m/s, 162° | - | - |
| 1787702469 | 39.44° C | - | - | 0 mm | 2.68 m/s, 139° | - | - |
| 1787702166 | 38.89° C | - | - | 0 mm | 4.02 m/s, 128° | - | - |
| 1787701867 | 39.44° C | - | - | 0 mm | 4.47 m/s, 128° | - | - |
| 1787701567 | 39.44° C | - | - | 0 mm | 4.02 m/s, 132° | - | - |
| 1787701264 | 39.44° C | - | - | 0 mm | 3.13 m/s, 97° | - | - |
| 1787700964 | 39.44° C | - | - | 0 mm | 3.13 m/s, 100° | - | - |
| 1787700664 | 39.44° C | - | - | 0 mm | 3.13 m/s, 152° | - | - |
| 1787700361 | 39.44° C | - | - | 0 mm | 2.68 m/s, 127° | - | - |
| 1787700061 | 39.44° C | - | - | 0 mm | 4.02 m/s, 98° | - | - |
| 1787699761 | 40° C | - | - | 0 mm | 2.68 m/s, 132° | - | - |
| 1787699458 | 40° C | - | - | 0 mm | 3.58 m/s, 143° | - | - |
| 1787699159 | 40° C | - | - | 0 mm | 4.47 m/s, 111° | - | - |
| 1787698859 | 40° C | - | - | 0 mm | 1.79 m/s, 114° | - | - |
| 1787698556 | 40° C | - | - | 0 mm | 2.68 m/s, 93° | - | - |
| 1787698256 | 40° C | - | - | 0 mm | 4.02 m/s, 138° | - | - |
| 1787697956 | 40° C | - | - | 0 mm | 3.58 m/s, 179° | - | - |
| 1787697653 | 40.56° C | - | - | 0 mm | 4.02 m/s, 89° | - | - |
| 1787697353 | 41.11° C | - | - | 0 mm | 2.68 m/s, 205° | - | - |
| 1787697053 | 41.11° C | - | - | 0 mm | 2.24 m/s, 159° | - | - |
| 1787696750 | 40.56° C | - | - | 0 mm | 4.02 m/s, 201° | - | - |
| 1787696450 | 40° C | - | - | 0 mm | 3.13 m/s, 134° | - | - |
| 1787696151 | 40° C | - | - | 0 mm | 3.13 m/s, 145° | - | - |
* Rain latest hour (hover to see other rain measurements)
** Current wind speed in m/s (hover to see current wind gust speed)